Year,Month,Day,Hour,Minute,Value (Times are PST for temperature in C)
2016,06,16,00,00,7.70
2016,06,16,00,01,7.70
2016,06,16,00,02,7.70
2016,06,16,00,03,7.70
2016,06,16,00,04,7.70
2016,06,16,00,05,7.70
2016,06,16,00,06,7.70
2016,06,16,00,07,7.70
2016,06,16,00,08,7.60
2016,06,16,00,09,7.60
2016,06,16,00,10,7.60
2016,06,16,00,11,7.60
2016,06,16,00,12,7.60
2016,06,16,00,13,7.50
2016,06,16,00,14,7.50
2016,06,16,00,15,7.50
2016,06,16,00,16,7.50
2016,06,16,00,17,7.50
2016,06,16,00,18,7.50
2016,06,16,00,19,7.50
2016,06,16,00,20,7.50
2016,06,16,00,21,7.50
2016,06,16,00,22,7.40
2016,06,16,00,23,7.40
2016,06,16,00,24,7.40
2016,06,16,00,25,7.40
2016,06,16,00,26,7.40
2016,06,16,00,27,7.40
2016,06,16,00,28,7.30
2016,06,16,00,29,7.30
2016,06,16,00,30,7.30
2016,06,16,00,31,7.30
2016,06,16,00,32,7.30
2016,06,16,00,33,7.20
2016,06,16,00,34,7.20
2016,06,16,00,35,7.20
2016,06,16,00,36,7.20
2016,06,16,00,37,7.20
2016,06,16,00,38,7.20
2016,06,16,00,39,7.20
2016,06,16,00,40,7.10
2016,06,16,00,41,7.10
2016,06,16,00,42,7.10
2016,06,16,00,43,7.10
2016,06,16,00,44,7.10
2016,06,16,00,45,7.10
2016,06,16,00,46,7.10
2016,06,16,00,47,7.10
2016,06,16,00,48,7.10
2016,06,16,00,49,7.10
2016,06,16,00,50,7.10
2016,06,16,00,51,7.10
2016,06,16,00,52,7.10
2016,06,16,00,53,7.10
2016,06,16,00,54,7.10
2016,06,16,00,55,7.10
2016,06,16,00,56,7.10
2016,06,16,00,57,7.10
2016,06,16,00,58,7.10
2016,06,16,00,59,7.00
2016,06,16,01,00,7.00
2016,06,16,01,01,7.00
2016,06,16,01,02,7.00
2016,06,16,01,03,7.00
2016,06,16,01,04,6.90
2016,06,16,01,05,6.90
2016,06,16,01,06,6.90
2016,06,16,01,07,7.00
2016,06,16,01,08,7.00
2016,06,16,01,09,7.00
2016,06,16,01,10,7.00
2016,06,16,01,11,7.00
2016,06,16,01,12,7.00
2016,06,16,01,13,7.00
2016,06,16,01,14,7.00
2016,06,16,01,15,7.00
2016,06,16,01,16,7.00
2016,06,16,01,17,6.90
2016,06,16,01,18,6.90
2016,06,16,01,19,6.90
2016,06,16,01,20,6.90
2016,06,16,01,21,6.90
2016,06,16,01,22,7.00
2016,06,16,01,23,7.00
2016,06,16,01,24,7.00
2016,06,16,01,25,7.00
2016,06,16,01,26,7.00
2016,06,16,01,27,7.10
2016,06,16,01,28,7.10
2016,06,16,01,29,7.10
2016,06,16,01,30,7.10
2016,06,16,01,31,7.10
2016,06,16,01,32,7.10
2016,06,16,01,33,7.10
2016,06,16,01,34,7.10
2016,06,16,01,35,7.10
2016,06,16,01,36,7.10
2016,06,16,01,37,7.10
2016,06,16,01,38,7.20
2016,06,16,01,39,7.20
2016,06,16,01,40,7.20
2016,06,16,01,41,7.20
2016,06,16,01,42,7.20
2016,06,16,01,43,7.30
2016,06,16,01,44,7.30
2016,06,16,01,45,7.30
2016,06,16,01,46,7.30
2016,06,16,01,47,7.40
2016,06,16,01,48,7.40
2016,06,16,01,49,7.40
2016,06,16,01,50,7.30
2016,06,16,01,51,7.30
2016,06,16,01,52,7.30
2016,06,16,01,53,7.30
2016,06,16,01,54,7.30
2016,06,16,01,55,7.20
2016,06,16,01,56,7.20
2016,06,16,01,57,7.20
2016,06,16,01,58,7.20
2016,06,16,01,59,7.20
2016,06,16,02,00,7.20
2016,06,16,02,01,7.20
2016,06,16,02,02,7.10
2016,06,16,02,03,7.10
2016,06,16,02,04,7.10
2016,06,16,02,05,7.00
2016,06,16,02,06,7.00
2016,06,16,02,07,7.00
2016,06,16,02,08,7.00
2016,06,16,02,09,7.00
2016,06,16,02,10,7.00
2016,06,16,02,11,7.00
2016,06,16,02,12,7.00
2016,06,16,02,13,7.00
2016,06,16,02,14,7.00
2016,06,16,02,15,7.00
2016,06,16,02,16,7.00
2016,06,16,02,17,7.00
2016,06,16,02,18,7.00
2016,06,16,02,19,7.00
2016,06,16,02,20,7.00
2016,06,16,02,21,7.00
2016,06,16,02,22,7.10
2016,06,16,02,23,7.10
2016,06,16,02,24,7.10
2016,06,16,02,25,7.10
2016,06,16,02,26,7.20
2016,06,16,02,27,7.20
2016,06,16,02,28,7.20
2016,06,16,02,29,7.20
2016,06,16,02,30,7.20
2016,06,16,02,31,7.20
2016,06,16,02,32,7.20
2016,06,16,02,33,7.30
2016,06,16,02,34,7.30
2016,06,16,02,35,7.30
2016,06,16,02,36,7.30
2016,06,16,02,37,7.30
2016,06,16,02,38,7.30
2016,06,16,02,39,7.30
2016,06,16,02,40,7.30
2016,06,16,02,41,7.20
2016,06,16,02,42,7.20
2016,06,16,02,43,7.20
2016,06,16,02,44,7.20
2016,06,16,02,45,7.20
2016,06,16,02,46,7.20
2016,06,16,02,47,7.20
2016,06,16,02,48,7.20
2016,06,16,02,49,7.10
2016,06,16,02,50,7.10
2016,06,16,02,51,7.10
2016,06,16,02,52,7.10
2016,06,16,02,53,7.10
2016,06,16,02,54,7.10
2016,06,16,02,55,7.10
2016,06,16,02,56,7.10
2016,06,16,02,57,7.10
2016,06,16,02,58,7.10
2016,06,16,02,59,7.10
2016,06,16,03,00,7.10
2016,06,16,03,01,7.10
2016,06,16,03,02,7.10
2016,06,16,03,03,7.10
2016,06,16,03,04,7.10
2016,06,16,03,05,7.10
2016,06,16,03,06,7.10
2016,06,16,03,07,7.10
2016,06,16,03,08,7.10
2016,06,16,03,09,7.10
2016,06,16,03,10,7.10
2016,06,16,03,11,7.10
2016,06,16,03,12,7.10
2016,06,16,03,13,7.10
2016,06,16,03,14,7.10
2016,06,16,03,15,7.10
2016,06,16,03,16,7.10
2016,06,16,03,17,7.10
2016,06,16,03,18,7.10
2016,06,16,03,19,7.10
2016,06,16,03,20,7.10
2016,06,16,03,21,7.10
2016,06,16,03,22,7.10
2016,06,16,03,23,7.10
2016,06,16,03,24,7.10
2016,06,16,03,25,7.10
2016,06,16,03,26,7.10
2016,06,16,03,27,7.10
2016,06,16,03,28,7.10
2016,06,16,03,29,7.20
2016,06,16,03,30,7.20
2016,06,16,03,31,7.20
2016,06,16,03,32,7.20
2016,06,16,03,33,7.20
2016,06,16,03,34,7.20
2016,06,16,03,35,7.20
2016,06,16,03,36,7.20
2016,06,16,03,37,7.20
2016,06,16,03,38,7.20
2016,06,16,03,39,7.20
2016,06,16,03,40,7.20
2016,06,16,03,41,7.20
2016,06,16,03,42,7.20
2016,06,16,03,43,7.20
2016,06,16,03,44,7.10
2016,06,16,03,45,7.10
2016,06,16,03,46,7.10
2016,06,16,03,47,7.10
2016,06,16,03,48,7.10
2016,06,16,03,49,7.10
2016,06,16,03,50,7.10
2016,06,16,03,51,7.10
2016,06,16,03,52,7.10
2016,06,16,03,53,7.10
2016,06,16,03,54,7.10
2016,06,16,03,55,7.10
2016,06,16,03,56,7.10
2016,06,16,03,57,7.10
2016,06,16,03,58,7.10
2016,06,16,03,59,7.10
2016,06,16,04,00,7.10
2016,06,16,04,01,7.10
2016,06,16,04,02,7.10
2016,06,16,04,03,7.10
2016,06,16,04,04,7.10
2016,06,16,04,05,7.10
2016,06,16,04,06,7.10
2016,06,16,04,07,7.10
2016,06,16,04,08,7.10
2016,06,16,04,09,7.10
2016,06,16,04,10,7.10
2016,06,16,04,11,7.10
2016,06,16,04,12,7.10
2016,06,16,04,13,7.00
2016,06,16,04,14,7.00
2016,06,16,04,15,7.00
2016,06,16,04,16,7.00
2016,06,16,04,17,6.90
2016,06,16,04,18,6.90
2016,06,16,04,19,6.90
2016,06,16,04,20,6.90
2016,06,16,04,21,6.90
2016,06,16,04,22,6.90
2016,06,16,04,23,6.90
2016,06,16,04,24,6.80
2016,06,16,04,25,6.80
2016,06,16,04,26,6.80
2016,06,16,04,27,6.80
2016,06,16,04,28,6.80
2016,06,16,04,29,6.70
2016,06,16,04,30,6.70
2016,06,16,04,31,6.70
2016,06,16,04,32,6.70
2016,06,16,04,33,6.60
2016,06,16,04,34,6.60
2016,06,16,04,35,6.60
2016,06,16,04,36,6.60
2016,06,16,04,37,6.60
2016,06,16,04,38,6.60
2016,06,16,04,39,6.60
2016,06,16,04,40,6.60
2016,06,16,04,41,6.60
2016,06,16,04,42,6.60
2016,06,16,04,43,6.70
2016,06,16,04,44,6.70
2016,06,16,04,45,6.70
2016,06,16,04,46,6.70
2016,06,16,04,47,6.70
2016,06,16,04,48,6.70
2016,06,16,04,49,6.70
2016,06,16,04,50,6.70
2016,06,16,04,51,6.70
2016,06,16,04,52,6.70
2016,06,16,04,53,6.70
2016,06,16,04,54,6.80
2016,06,16,04,55,6.80
2016,06,16,04,56,6.80
2016,06,16,04,57,6.80
2016,06,16,04,58,6.80
2016,06,16,04,59,6.80
2016,06,16,05,00,6.70
2016,06,16,05,01,6.70
2016,06,16,05,02,6.70
2016,06,16,05,03,6.70
2016,06,16,05,04,6.60
2016,06,16,05,05,6.60
2016,06,16,05,06,6.60
2016,06,16,05,07,6.50
2016,06,16,05,08,6.50
2016,06,16,05,09,6.50
2016,06,16,05,10,6.40
2016,06,16,05,11,6.40
2016,06,16,05,12,6.40
2016,06,16,05,13,6.40
2016,06,16,05,14,6.40
2016,06,16,05,15,6.30
2016,06,16,05,16,6.30
2016,06,16,05,17,6.30
2016,06,16,05,18,6.30
2016,06,16,05,19,6.20
2016,06,16,05,20,6.20
2016,06,16,05,21,6.20
2016,06,16,05,22,6.20
2016,06,16,05,23,6.20
2016,06,16,05,24,6.20
2016,06,16,05,25,6.10
2016,06,16,05,26,6.10
2016,06,16,05,27,6.10
2016,06,16,05,28,6.10
2016,06,16,05,29,6.10
2016,06,16,05,30,6.10
2016,06,16,05,31,6.00
2016,06,16,05,32,6.00
2016,06,16,05,33,6.00
2016,06,16,05,34,6.00
2016,06,16,05,35,6.00
2016,06,16,05,36,6.00
2016,06,16,05,37,6.00
2016,06,16,05,38,5.90
2016,06,16,05,39,5.90
2016,06,16,05,40,5.90
2016,06,16,05,41,5.90
2016,06,16,05,42,6.00
2016,06,16,05,43,6.00
2016,06,16,05,44,6.00
2016,06,16,05,45,6.00
2016,06,16,05,46,6.00
2016,06,16,05,47,6.10
2016,06,16,05,48,6.10
2016,06,16,05,49,6.10
2016,06,16,05,50,6.10
2016,06,16,05,51,6.10
2016,06,16,05,52,6.10
2016,06,16,05,53,6.10
2016,06,16,05,54,6.10
2016,06,16,05,55,6.20
2016,06,16,05,56,6.20
2016,06,16,05,57,6.20
2016,06,16,05,58,6.20
2016,06,16,05,59,6.20
2016,06,16,06,00,6.20
2016,06,16,06,01,6.20
2016,06,16,06,02,6.20
2016,06,16,06,03,6.20
2016,06,16,06,04,6.20
2016,06,16,06,05,6.20
2016,06,16,06,06,6.30
2016,06,16,06,07,6.30
2016,06,16,06,08,6.30
2016,06,16,06,09,6.30
2016,06,16,06,10,6.30
2016,06,16,06,11,6.30
2016,06,16,06,12,6.40
2016,06,16,06,13,6.40
2016,06,16,06,14,6.40
2016,06,16,06,15,6.40
2016,06,16,06,16,6.40
2016,06,16,06,17,6.40
2016,06,16,06,18,6.40
2016,06,16,06,19,6.50
2016,06,16,06,20,6.60
2016,06,16,06,21,6.60
2016,06,16,06,22,6.70
2016,06,16,06,23,6.80
2016,06,16,06,24,6.80
2016,06,16,06,25,6.90
2016,06,16,06,26,6.90
2016,06,16,06,27,7.00
2016,06,16,06,28,7.10
2016,06,16,06,29,7.20
2016,06,16,06,30,7.20
2016,06,16,06,31,7.20
2016,06,16,06,32,7.30
2016,06,16,06,33,7.40
2016,06,16,06,34,7.40
2016,06,16,06,35,7.50
2016,06,16,06,36,7.60
2016,06,16,06,37,7.70
2016,06,16,06,38,7.70
2016,06,16,06,39,7.80
2016,06,16,06,40,7.90
2016,06,16,06,41,8.00
2016,06,16,06,42,8.10
2016,06,16,06,43,8.20
2016,06,16,06,44,8.30
2016,06,16,06,45,8.40
2016,06,16,06,46,8.50
2016,06,16,06,47,8.60
2016,06,16,06,48,8.70
2016,06,16,06,49,8.70
2016,06,16,06,50,8.80
2016,06,16,06,51,8.80
2016,06,16,06,52,8.90
2016,06,16,06,53,9.00
2016,06,16,06,54,9.10
2016,06,16,06,55,9.10
2016,06,16,06,56,9.20
2016,06,16,06,57,9.20
2016,06,16,06,58,9.30
2016,06,16,06,59,9.30
2016,06,16,07,00,9.30
2016,06,16,07,01,9.30
2016,06,16,07,02,9.30
2016,06,16,07,03,9.30
2016,06,16,07,04,9.30
2016,06,16,07,05,9.30
2016,06,16,07,06,9.30
2016,06,16,07,07,9.30
2016,06,16,07,08,9.30
2016,06,16,07,09,9.30
2016,06,16,07,10,9.30
2016,06,16,07,11,9.30
2016,06,16,07,12,9.40
2016,06,16,07,13,9.40
2016,06,16,07,14,9.50
2016,06,16,07,15,9.60
2016,06,16,07,16,9.70
2016,06,16,07,17,9.80
2016,06,16,07,18,9.90
2016,06,16,07,19,10.00
2016,06,16,07,20,10.20
2016,06,16,07,21,10.30
2016,06,16,07,22,10.40
2016,06,16,07,23,10.50
2016,06,16,07,24,10.60
2016,06,16,07,25,10.80
2016,06,16,07,26,10.80
2016,06,16,07,27,10.90
2016,06,16,07,28,11.00
2016,06,16,07,29,11.10
2016,06,16,07,30,11.20
2016,06,16,07,31,11.30
2016,06,16,07,32,11.40
2016,06,16,07,33,11.50
2016,06,16,07,34,11.60
2016,06,16,07,35,11.60
2016,06,16,07,36,11.70
2016,06,16,07,37,11.80
2016,06,16,07,38,11.90
2016,06,16,07,39,11.90
2016,06,16,07,40,12.00
2016,06,16,07,41,12.00
2016,06,16,07,42,12.00
2016,06,16,07,43,12.00
2016,06,16,07,44,12.00
2016,06,16,07,45,12.00
2016,06,16,07,46,11.90
2016,06,16,07,47,11.90
2016,06,16,07,48,11.90
2016,06,16,07,49,11.90
2016,06,16,07,50,12.00
2016,06,16,07,51,12.00
2016,06,16,07,52,12.00
2016,06,16,07,53,12.00
2016,06,16,07,54,12.10
2016,06,16,07,55,12.10
2016,06,16,07,56,12.10
2016,06,16,07,57,12.20
2016,06,16,07,58,12.20
2016,06,16,07,59,12.20
2016,06,16,08,00,12.20
2016,06,16,08,01,12.20
2016,06,16,08,02,12.10
2016,06,16,08,03,12.10
2016,06,16,08,04,12.10
2016,06,16,08,05,12.10
2016,06,16,08,06,12.10
2016,06,16,08,07,12.10
2016,06,16,08,08,12.10
2016,06,16,08,09,12.20
2016,06,16,08,10,12.20
2016,06,16,08,11,12.30
2016,06,16,08,12,12.40
2016,06,16,08,13,12.40
2016,06,16,08,14,12.50
2016,06,16,08,15,12.50
2016,06,16,08,16,12.50
2016,06,16,08,17,12.50
2016,06,16,08,18,12.40
2016,06,16,08,19,12.50
2016,06,16,08,20,12.50
2016,06,16,08,21,12.60
2016,06,16,08,22,12.60
2016,06,16,08,23,12.60
2016,06,16,08,24,12.70
2016,06,16,08,25,12.70
2016,06,16,08,26,12.80
2016,06,16,08,27,12.80
2016,06,16,08,28,12.90
2016,06,16,08,29,12.90
2016,06,16,08,30,12.90
2016,06,16,08,31,12.90
2016,06,16,08,32,12.90
2016,06,16,08,33,12.90
2016,06,16,08,34,12.90
2016,06,16,08,35,12.90
2016,06,16,08,36,12.90
2016,06,16,08,37,12.90
2016,06,16,08,38,13.00
2016,06,16,08,39,13.00
2016,06,16,08,40,13.00
2016,06,16,08,41,12.90
2016,06,16,08,42,13.00
2016,06,16,08,43,13.10
2016,06,16,08,44,13.10
2016,06,16,08,45,13.20
2016,06,16,08,46,13.20
2016,06,16,08,47,13.20
2016,06,16,08,48,13.30
2016,06,16,08,49,13.30
2016,06,16,08,50,13.40
2016,06,16,08,51,13.40
2016,06,16,08,52,13.40
2016,06,16,08,53,13.40
2016,06,16,08,54,13.40
2016,06,16,08,55,13.40
2016,06,16,08,56,13.40
2016,06,16,08,57,13.40
2016,06,16,08,58,13.40
2016,06,16,08,59,13.40
2016,06,16,09,00,13.40
2016,06,16,09,01,13.40
2016,06,16,09,02,13.40
2016,06,16,09,03,13.50
2016,06,16,09,04,13.50
2016,06,16,09,05,13.50
2016,06,16,09,06,13.50
2016,06,16,09,07,13.50
2016,06,16,09,08,13.60
2016,06,16,09,09,13.60
2016,06,16,09,10,13.70
2016,06,16,09,11,13.70
2016,06,16,09,12,13.80
2016,06,16,09,13,13.80
2016,06,16,09,14,13.80
2016,06,16,09,15,13.80
2016,06,16,09,16,13.80
2016,06,16,09,17,13.90
2016,06,16,09,18,14.00
2016,06,16,09,19,14.10
2016,06,16,09,20,14.10
2016,06,16,09,21,14.10
2016,06,16,09,22,14.10
2016,06,16,09,23,14.10
2016,06,16,09,24,14.10
2016,06,16,09,25,14.10
2016,06,16,09,26,14.10
2016,06,16,09,27,14.10
2016,06,16,09,28,14.10
2016,06,16,09,29,14.00
2016,06,16,09,30,13.90
2016,06,16,09,31,13.80
2016,06,16,09,32,13.80
2016,06,16,09,33,13.80
2016,06,16,09,34,13.70
2016,06,16,09,35,13.80
2016,06,16,09,36,13.80
2016,06,16,09,37,13.80
2016,06,16,09,38,13.90
2016,06,16,09,39,13.90
2016,06,16,09,40,13.80
2016,06,16,09,41,13.80
2016,06,16,09,42,13.80
2016,06,16,09,43,13.80
2016,06,16,09,44,13.80
2016,06,16,09,45,13.80
2016,06,16,09,46,13.80
2016,06,16,09,47,13.70
2016,06,16,09,48,13.60
2016,06,16,09,49,13.50
2016,06,16,09,50,13.40
2016,06,16,09,51,13.40
2016,06,16,09,52,13.30
2016,06,16,09,53,13.20
2016,06,16,09,54,13.20
2016,06,16,09,55,13.20
2016,06,16,09,56,13.20
2016,06,16,09,57,13.20
2016,06,16,09,58,13.30
2016,06,16,09,59,13.30
2016,06,16,10,00,13.40
2016,06,16,10,01,13.50
2016,06,16,10,02,13.60
2016,06,16,10,03,13.70
2016,06,16,10,04,13.70
2016,06,16,10,05,13.80
2016,06,16,10,06,13.70
2016,06,16,10,07,13.70
2016,06,16,10,08,13.70
2016,06,16,10,09,13.70
2016,06,16,10,10,13.60
2016,06,16,10,11,13.60
2016,06,16,10,12,13.60
2016,06,16,10,13,13.50
2016,06,16,10,14,13.50
2016,06,16,10,15,13.40
2016,06,16,10,16,13.40
2016,06,16,10,17,13.30
2016,06,16,10,18,13.30
2016,06,16,10,19,13.40
2016,06,16,10,20,13.40
2016,06,16,10,21,13.40
2016,06,16,10,22,13.40
2016,06,16,10,23,13.50
2016,06,16,10,24,13.60
2016,06,16,10,25,13.60
2016,06,16,10,26,13.70
2016,06,16,10,27,13.70
2016,06,16,10,28,13.80
2016,06,16,10,29,13.90
2016,06,16,10,30,14.00
2016,06,16,10,31,14.10
2016,06,16,10,32,14.20
2016,06,16,10,33,14.20
2016,06,16,10,34,14.20
2016,06,16,10,35,14.20
2016,06,16,10,36,14.20
2016,06,16,10,37,14.30
2016,06,16,10,38,14.30
2016,06,16,10,39,14.40
2016,06,16,10,40,14.50
2016,06,16,10,41,14.50
2016,06,16,10,42,14.60
2016,06,16,10,43,14.70
2016,06,16,10,44,14.70
2016,06,16,10,45,14.70
2016,06,16,10,46,14.70
2016,06,16,10,47,14.70
2016,06,16,10,48,14.70
2016,06,16,10,49,14.80
2016,06,16,10,50,14.90
2016,06,16,10,51,14.90
2016,06,16,10,52,15.00
2016,06,16,10,53,15.00
2016,06,16,10,54,15.00
2016,06,16,10,55,15.00
2016,06,16,10,56,15.00
2016,06,16,10,57,15.00
2016,06,16,10,58,15.10
2016,06,16,10,59,15.00
2016,06,16,11,00,15.00
2016,06,16,11,01,15.00
2016,06,16,11,02,15.00
2016,06,16,11,03,15.00
2016,06,16,11,04,14.90
2016,06,16,11,05,14.80
2016,06,16,11,06,14.80
2016,06,16,11,07,14.80
2016,06,16,11,08,14.60
2016,06,16,11,09,14.20
2016,06,16,11,10,14.10
2016,06,16,11,11,14.00
2016,06,16,11,12,13.90
2016,06,16,11,13,13.90
2016,06,16,11,14,13.90
2016,06,16,11,15,14.00
2016,06,16,11,16,14.00
2016,06,16,11,17,14.10
2016,06,16,11,18,14.30
2016,06,16,11,19,14.30
2016,06,16,11,20,14.40
2016,06,16,11,21,14.60
2016,06,16,11,22,14.60
2016,06,16,11,23,14.70
2016,06,16,11,24,14.70
2016,06,16,11,25,14.60
2016,06,16,11,26,14.50
2016,06,16,11,27,14.40
2016,06,16,11,28,14.30
2016,06,16,11,29,14.30
2016,06,16,11,30,14.20
2016,06,16,11,31,14.10
2016,06,16,11,32,14.10
2016,06,16,11,33,14.00
2016,06,16,11,34,14.00
2016,06,16,11,35,14.00
2016,06,16,11,36,13.90
2016,06,16,11,37,13.90
2016,06,16,11,38,13.90
2016,06,16,11,39,13.90
2016,06,16,11,40,13.80
2016,06,16,11,41,13.80
2016,06,16,11,42,13.70
2016,06,16,11,43,13.70
2016,06,16,11,44,13.70
2016,06,16,11,45,13.70
2016,06,16,11,46,13.60
2016,06,16,11,47,13.50
2016,06,16,11,48,13.40
2016,06,16,11,49,13.20
2016,06,16,11,50,13.10
2016,06,16,11,51,12.80
2016,06,16,11,52,12.60
2016,06,16,11,53,12.30
2016,06,16,11,54,12.20
2016,06,16,11,55,12.00
2016,06,16,11,56,11.90
2016,06,16,11,57,11.80
2016,06,16,11,58,11.70
2016,06,16,11,59,11.60
2016,06,16,12,00,11.60
2016,06,16,12,01,11.60
2016,06,16,12,02,11.60
2016,06,16,12,03,11.50
2016,06,16,12,04,11.50
2016,06,16,12,05,11.50
2016,06,16,12,06,11.40
2016,06,16,12,07,11.40
2016,06,16,12,08,11.30
2016,06,16,12,09,11.30
2016,06,16,12,10,11.30
2016,06,16,12,11,11.20
2016,06,16,12,12,11.20
2016,06,16,12,13,11.10
2016,06,16,12,14,11.10
2016,06,16,12,15,11.10
2016,06,16,12,16,11.20
2016,06,16,12,17,11.20
2016,06,16,12,18,11.20
2016,06,16,12,19,11.20
2016,06,16,12,20,11.20
2016,06,16,12,21,11.20
2016,06,16,12,22,11.30
2016,06,16,12,23,11.30
2016,06,16,12,24,11.30
2016,06,16,12,25,11.30
2016,06,16,12,26,11.40
2016,06,16,12,27,11.40
2016,06,16,12,28,11.40
2016,06,16,12,29,11.40
2016,06,16,12,30,11.40
2016,06,16,12,31,11.30
2016,06,16,12,32,11.30
2016,06,16,12,33,11.30
2016,06,16,12,34,11.30
2016,06,16,12,35,11.40
2016,06,16,12,36,11.40
2016,06,16,12,37,11.50
2016,06,16,12,38,11.50
2016,06,16,12,39,11.50
2016,06,16,12,40,11.60
2016,06,16,12,41,11.60
2016,06,16,12,42,11.80
2016,06,16,12,43,11.90
2016,06,16,12,44,12.00
2016,06,16,12,45,12.10
2016,06,16,12,46,12.10
2016,06,16,12,47,12.10
2016,06,16,12,48,12.20
2016,06,16,12,49,12.20
2016,06,16,12,50,12.30
2016,06,16,12,51,12.30
2016,06,16,12,52,12.30
2016,06,16,12,53,12.30
2016,06,16,12,54,12.40
2016,06,16,12,55,12.40
2016,06,16,12,56,12.40
2016,06,16,12,57,12.40
2016,06,16,12,58,12.40
2016,06,16,12,59,12.50
2016,06,16,13,00,12.60
2016,06,16,13,01,12.60
2016,06,16,13,02,12.70
2016,06,16,13,03,12.70
2016,06,16,13,04,12.80
2016,06,16,13,05,12.80
2016,06,16,13,06,12.80
2016,06,16,13,07,12.90
2016,06,16,13,08,12.90
2016,06,16,13,09,12.90
2016,06,16,13,10,12.90
2016,06,16,13,11,13.00
2016,06,16,13,12,13.10
2016,06,16,13,13,13.10
2016,06,16,13,14,13.20
2016,06,16,13,15,13.20
2016,06,16,13,16,13.30
2016,06,16,13,17,13.30
2016,06,16,13,18,13.30
2016,06,16,13,19,13.30
2016,06,16,13,20,13.30
2016,06,16,13,21,13.40
2016,06,16,13,22,13.40
2016,06,16,13,23,13.40
2016,06,16,13,24,13.50
2016,06,16,13,25,13.70
2016,06,16,13,26,13.70
2016,06,16,13,27,13.80
2016,06,16,13,28,13.90
2016,06,16,13,29,13.90
2016,06,16,13,30,13.90
2016,06,16,13,31,14.00
2016,06,16,13,32,14.00
2016,06,16,13,33,14.10
2016,06,16,13,34,14.20
2016,06,16,13,35,14.30
2016,06,16,13,36,14.40
2016,06,16,13,37,14.40
2016,06,16,13,38,14.60
2016,06,16,13,39,14.70
2016,06,16,13,40,14.80
2016,06,16,13,41,14.90
2016,06,16,13,42,15.00
2016,06,16,13,43,15.00
2016,06,16,13,44,15.10
2016,06,16,13,45,15.30
2016,06,16,13,46,15.40
2016,06,16,13,47,15.50
2016,06,16,13,48,15.70
2016,06,16,13,49,15.80
2016,06,16,13,50,15.80
2016,06,16,13,51,15.90
2016,06,16,13,52,15.90
2016,06,16,13,53,15.90
2016,06,16,13,54,15.90
2016,06,16,13,55,15.90
2016,06,16,13,56,15.90
2016,06,16,13,57,16.00
2016,06,16,13,58,16.10
2016,06,16,13,59,16.20
2016,06,16,14,00,16.20
2016,06,16,14,01,16.40
2016,06,16,14,02,16.60
2016,06,16,14,03,16.80
2016,06,16,14,04,16.80
2016,06,16,14,05,16.90
2016,06,16,14,06,16.90
2016,06,16,14,07,17.00
2016,06,16,14,08,17.20
2016,06,16,14,09,17.30
2016,06,16,14,10,17.30
2016,06,16,14,11,17.20
2016,06,16,14,12,17.10
2016,06,16,14,13,17.10
2016,06,16,14,14,17.10
2016,06,16,14,15,17.10
2016,06,16,14,16,17.00
2016,06,16,14,17,16.90
2016,06,16,14,18,17.00
2016,06,16,14,19,17.10
2016,06,16,14,20,17.30
2016,06,16,14,21,17.50
2016,06,16,14,22,17.60
2016,06,16,14,23,17.60
2016,06,16,14,24,17.60
2016,06,16,14,25,17.60
2016,06,16,14,26,17.50
2016,06,16,14,27,17.40
2016,06,16,14,28,17.40
2016,06,16,14,29,17.30
2016,06,16,14,30,17.30
2016,06,16,14,31,17.40
2016,06,16,14,32,17.40
2016,06,16,14,33,17.50
2016,06,16,14,34,17.60
2016,06,16,14,35,17.70
2016,06,16,14,36,17.70
2016,06,16,14,37,17.90
2016,06,16,14,38,18.00
2016,06,16,14,39,18.10
2016,06,16,14,40,18.20
2016,06,16,14,41,18.20
2016,06,16,14,42,18.10
2016,06,16,14,43,17.90
2016,06,16,14,44,17.90
2016,06,16,14,45,18.00
2016,06,16,14,46,17.90
2016,06,16,14,47,17.90
2016,06,16,14,48,18.00
2016,06,16,14,49,18.10
2016,06,16,14,50,18.10
2016,06,16,14,51,18.20
2016,06,16,14,52,18.20
2016,06,16,14,53,18.20
2016,06,16,14,54,18.20
2016,06,16,14,55,18.10
2016,06,16,14,56,18.10
2016,06,16,14,57,18.00
2016,06,16,14,58,17.90
2016,06,16,14,59,17.80
2016,06,16,15,00,17.70
2016,06,16,15,01,17.70
2016,06,16,15,02,17.70
2016,06,16,15,03,17.70
2016,06,16,15,04,17.70
2016,06,16,15,05,17.80
2016,06,16,15,06,17.80
2016,06,16,15,07,17.90
2016,06,16,15,08,18.00
2016,06,16,15,09,18.10
2016,06,16,15,10,18.10
2016,06,16,15,11,17.90
2016,06,16,15,12,17.70
2016,06,16,15,13,17.60
2016,06,16,15,14,17.60
2016,06,16,15,15,17.40
2016,06,16,15,16,17.40
2016,06,16,15,17,17.40
2016,06,16,15,18,17.40
2016,06,16,15,19,17.40
2016,06,16,15,20,17.40
2016,06,16,15,21,17.30
2016,06,16,15,22,17.30
2016,06,16,15,23,17.20
2016,06,16,15,24,17.20
2016,06,16,15,25,17.20
2016,06,16,15,26,17.20
2016,06,16,15,27,17.20
2016,06,16,15,28,17.10
2016,06,16,15,29,17.10
2016,06,16,15,30,17.10
2016,06,16,15,31,17.10
2016,06,16,15,32,17.20
2016,06,16,15,33,17.20
2016,06,16,15,34,17.10
2016,06,16,15,35,17.10
2016,06,16,15,36,17.10
2016,06,16,15,37,17.10
2016,06,16,15,38,17.10
2016,06,16,15,39,17.10
2016,06,16,15,40,17.00
2016,06,16,15,41,17.00
2016,06,16,15,42,17.00
2016,06,16,15,43,17.00
2016,06,16,15,44,17.00
2016,06,16,15,45,16.90
2016,06,16,15,46,16.80
2016,06,16,15,47,16.70
2016,06,16,15,48,16.60
2016,06,16,15,49,16.60
2016,06,16,15,50,16.60
2016,06,16,15,51,16.60
2016,06,16,15,52,16.60
2016,06,16,15,53,16.60
2016,06,16,15,54,16.70
2016,06,16,15,55,16.70
2016,06,16,15,56,16.70
2016,06,16,15,57,16.70
2016,06,16,15,58,16.70
2016,06,16,15,59,16.50
2016,06,16,16,00,16.40
2016,06,16,16,01,16.40
2016,06,16,16,02,16.40
2016,06,16,16,03,16.40
2016,06,16,16,04,16.30
2016,06,16,16,05,16.30
2016,06,16,16,06,16.30
2016,06,16,16,07,16.30
2016,06,16,16,08,16.30
2016,06,16,16,09,16.30
2016,06,16,16,10,16.20
2016,06,16,16,11,16.10
2016,06,16,16,12,16.00
2016,06,16,16,13,15.90
2016,06,16,16,14,15.80
2016,06,16,16,15,15.80
2016,06,16,16,16,15.80
2016,06,16,16,17,15.80
2016,06,16,16,18,15.80
2016,06,16,16,19,15.80
2016,06,16,16,20,15.70
2016,06,16,16,21,15.70
2016,06,16,16,22,15.70
2016,06,16,16,23,15.80
2016,06,16,16,24,15.70
2016,06,16,16,25,15.70
2016,06,16,16,26,15.50
2016,06,16,16,27,15.40
2016,06,16,16,28,15.30
2016,06,16,16,29,15.20
2016,06,16,16,30,15.10
2016,06,16,16,31,15.00
2016,06,16,16,32,15.10
2016,06,16,16,33,15.20
2016,06,16,16,34,15.20
2016,06,16,16,35,15.30
2016,06,16,16,36,15.30
2016,06,16,16,37,15.30
2016,06,16,16,38,15.40
2016,06,16,16,39,15.40
2016,06,16,16,40,15.40
2016,06,16,16,41,15.50
2016,06,16,16,42,15.60
2016,06,16,16,43,15.60
2016,06,16,16,44,15.70
2016,06,16,16,45,15.80
2016,06,16,16,46,15.80
2016,06,16,16,47,15.80
2016,06,16,16,48,15.70
2016,06,16,16,49,15.70
2016,06,16,16,50,15.60
2016,06,16,16,51,15.50
2016,06,16,16,52,15.50
2016,06,16,16,53,15.50
2016,06,16,16,54,15.50
2016,06,16,16,55,15.60
2016,06,16,16,56,15.60
2016,06,16,16,57,15.60
2016,06,16,16,58,15.70
2016,06,16,16,59,15.80
2016,06,16,17,00,15.90
2016,06,16,17,01,16.00
2016,06,16,17,02,16.10
2016,06,16,17,03,16.20
2016,06,16,17,04,16.20
2016,06,16,17,05,16.30
2016,06,16,17,06,16.30
2016,06,16,17,07,16.30
2016,06,16,17,08,16.40
2016,06,16,17,09,16.40
2016,06,16,17,10,16.30
2016,06,16,17,11,16.30
2016,06,16,17,12,16.30
2016,06,16,17,13,16.30
2016,06,16,17,14,16.20
2016,06,16,17,15,16.20
2016,06,16,17,16,16.20
2016,06,16,17,17,16.20
2016,06,16,17,18,16.20
2016,06,16,17,19,16.30
2016,06,16,17,20,16.30
2016,06,16,17,21,16.30
2016,06,16,17,22,16.30
2016,06,16,17,23,16.30
2016,06,16,17,24,16.30
2016,06,16,17,25,16.30
2016,06,16,17,26,16.30
2016,06,16,17,27,16.30
2016,06,16,17,28,16.30
2016,06,16,17,29,16.20
2016,06,16,17,30,16.10
2016,06,16,17,31,16.10
2016,06,16,17,32,16.10
2016,06,16,17,33,16.10
2016,06,16,17,34,16.00
2016,06,16,17,35,16.00
2016,06,16,17,36,15.90
2016,06,16,17,37,16.00
2016,06,16,17,38,16.00